Campeche, Mexico

6:02 AM CST on December 13, 2017 (GMT -0600)
Alberto Acuna Ongay

Weather History for MMCP - January, 2013

Change the Weather History Date:

Wednesday, January 2, 2013

  Actual Average Record
Temperature  
Mean Temperature 79 °F -  
Max Temperature 92 °F 81 °F 93 °F (2017)
Min Temperature 66 °F 63 °F 62 °F (1998)
Cooling Degree Days 14    
Growing Degree Days 29 (Base 50)    
Moisture  
Dew Point 72 °F    
Average Humidity 82    
Maximum Humidity 100    
Minimum Humidity 43    
Precipitation  
Precipitation 0.04 in - - ()
Sea Level Pressure  
Sea Level Pressure 29.94 in    
Wind  
Wind Speed 5 mph ()    
Max Wind Speed 12 mph    
Max Gust Speed 23 mph    
Visibility 6.0 miles    
Events Rain    
Averages and records for this station are not official NWS values.
T = Trace of Precipitation, MM = Missing Value Source: Averaged Metar Reports

Daily Weather History Graph

Daily Weather History Graph

Search for Another Location

Airport or City:

Trip Planner

Search our weather history database for the weather conditions in past years. The results will help you decide how hot, cold, wet, or windy it might be!

Date:

Astronomy

Jan. 02, 2013 Rise Set
Actual Time 6:37 AM CST 5:35 PM CST
Civil Twilight 6:13 AM CST 5:59 PM CST
Nautical Twilight 5:45 AM CST 6:26 PM CST
Astronomical Twilight 5:18 AM CST 6:53 PM CST
Moon 10:21 PM CST (1/2) 10:01 AM CST (1/2)
Length of Visible Light 11h 45m
Length of Day
10h 58m
Waning Gibbous, 75% of the Moon is Illuminated
Jan 2
Waning Gibbous
Jan 4
Last Quarter
Jan 11
New
Jan 18
First Quarter
Jan 26
Full

Hourly Weather History & Observations

Time (CST) Temp. Heat Index Dew Point Humidity Pressure Visibility Wind Dir Wind Speed Gust Speed Precip Events Conditions
2:50 AM 69 °F - 68 °F 96% 29.92 in 4 mi Calm Calm - -  
5:42 AM 69.8 °F - 69.8 °F 100% 29.93 in 6.0 mi Calm Calm - N/A   Clear
5:45 AM 68 °F - 67 °F 98% 29.92 in 6 mi Calm Calm - -  
6:40 AM 69.8 °F - 69.8 °F 100% 29.94 in 5.0 mi Calm Calm - N/A   Clear
7:41 AM 71.6 °F - 71.6 °F 100% 29.96 in 5.0 mi Calm Calm - N/A   Clear
8:42 AM 75.2 °F - 71.6 °F 89% 29.98 in 6.0 mi East 11.5 mph - N/A   Clear
8:50 AM 78 °F - 72 °F 77% 29.97 in 6 mi SE 2.2 mph - -  
9:41 AM 80.6 °F 84.6 °F 71.6 °F 74% 29.97 in 7.0 mi East 11.5 mph - N/A   Clear
10:41 AM 84.2 °F 88.4 °F 69.8 °F 62% 29.96 in 7.0 mi East 11.5 mph 23.0 mph N/A   Clear
11:41 AM 86.0 °F 89.4 °F 68.0 °F 55% 29.94 in 7.0 mi SSE 11.5 mph 23.0 mph N/A   Scattered Clouds
11:48 AM 91 °F - 71 °F 43% 29.94 in 6 mi SSE 4.5 mph - -   Scattered Clouds
12:41 PM 84.2 °F 88.4 °F 69.8 °F 62% 29.91 in 7.0 mi West 11.5 mph 23.0 mph N/A   Scattered Clouds
1:43 PM 80.6 °F 85.4 °F 73.4 °F 79% 29.88 in 7.0 mi West 11.5 mph 23.0 mph N/A   Scattered Clouds
2:42 PM 80.6 °F 84.6 °F 71.6 °F 74% 29.89 in 7.0 mi West 11.5 mph - N/A   Mostly Cloudy
2:50 PM 82 °F - 72 °F 65% 29.88 in 6 mi West 4.5 mph - -   Scattered Clouds
3:42 PM 80.6 °F 84.6 °F 71.6 °F 74% 29.88 in 7.0 mi WNW 11.5 mph - N/A   Mostly Cloudy
4:40 PM 78.8 °F - 73.4 °F 83% 29.89 in 7.0 mi North 11.5 mph - N/A   Scattered Clouds
5:41 PM 78.8 °F - 73.4 °F 83% 29.90 in 7.0 mi North 11.5 mph - N/A   Scattered Clouds
5:45 PM 79 °F - 73 °F 78% 29.91 in 5 mi NNW 4.5 mph - -   Mostly Cloudy
6:42 PM 77.0 °F - 73.4 °F 89% 29.92 in 7.0 mi North 11.5 mph - N/A   Scattered Clouds
7:41 PM 77.0 °F - 73.4 °F 89% 29.95 in 7.0 mi WNW 5.8 mph - N/A   Scattered Clouds
8:42 PM 77.0 °F - 73.4 °F 89% 29.97 in 7.0 mi West 5.8 mph - N/A   Scattered Clouds
8:50 PM 78 °F - 73 °F 81% 29.98 in 4 mi Calm Calm - -   Mostly Cloudy
9:42 PM 75.2 °F - 73.4 °F 94% 29.99 in 5.0 mi South 11.5 mph - N/A   Mostly Cloudy
10:41 PM 73.4 °F - 73.4 °F 100% 30.00 in 5.0 mi Calm Calm - N/A   Mostly Cloudy
11:47 PM 74 °F - 72 °F 93% 29.99 in 4 mi West 2.2 mph - - Rain Light Drizzle